Probability
0 0 0 0 0 0 0 0 0 0 0 0 0 0 0 0 0 0 0 0 0 0 0 0 0 0 0 0 0 0 0 0 0 0 0 0 0 0 0 0 0 0 0 0
0 0 0 0 0 0 0 0 0 0 0 0 0 0 0 0 0 0 0 0 0 0 0 0 0 0 0 0 0 0 0 0 0 0 0 0 0 0 0 0 0 0 0 0
0 0 0 0 0 0 0 0 0 0 0 0 0 0 0 0 0 0 0 0 0 0 0 1 0 0 0 0 0 0 0 0 0 0 0 0 0 0 0 0 0 0 0 0
0 0 0 0 0 0 0 0 0 0 0 0 0 0 0 0 0 0 0 0 0 0 0 0 0 0 0 0 0 0 0 0 0 0 0 0 0 0 0 0 0 0 0 0
0 0 0 0 0 0 0 0 0 0 0 0 0 0 0 0 0 0 0 0 0 0 0 0 0 0 0 0 0 0 0 0 0 0 0 0 0 0 0 0 0 0 0 1
0 0 0 0 0 0 0 0 0 0 0 0 0 0 0 0 0 0 0 0 0 0 0 0 0 1 1 1 0 0 0 0 0 0 0 0 0 0 0 0 0 0 1 2
0 0 0 0 0 0 0 0 0 0 0 0 0 0 0 0 0 0 0 0 0 0 0 0 1 2 2 2 1 0 0 0 0 0 0 0 0 0 0 0 0 0 1 2
0 0 0 0 0 0 0 0 0 0 0 0 0 0 0 0 0 0 0 0 0 0 0 0 1 2 3 3 1 0 0 0 0 0 0 0 0 0 0 0 0 0 0 1
0 0 0 0 0 0 0 0 0 0 0 0 0 0 0 0 0 0 0 0 0 0 0 0 0 1 2 2 1 0 0 0 0 0 0 0 0 0 0 0 0 0 1 2
0 0 0 0 0 0 0 0 0 0 0 0 0 0 0 0 0 0 0 0 0 0 0 0 0 0 1 2 1 1 0 0 0 0 0 0 0 0 0 0 0 1 1 2
0 0 0 0 0 0 0 0 0 0 0 0 0 0 0 0 0 0 0 0 0 0 0 0 0 1 2 2 2 2 1 0 0 0 0 0 0 0 0 0 0 1 2 3
0 0 0 0 0 0 0 0 0 0 0 0 0 0 0 0 0 0 0 0 0 0 0 0 0 1 3 3 3 3 2 1 0 0 0 0 0 0 0 0 0 1 2 2
0 0 0 0 0 0 0 0 0 0 0 0 0 0 0 0 0 0 0 0 0 0 0 0 1 3 5 4 4 3 3 2 1 0 0 0 0 0 0 0 0 0 1 1
0 0 0 0 0 0 0 0 0 0 0 0 0 0 0 0 0 0 0 0 0 0 0 1 3 6 8 7 4 3 3 3 2 1 0 0 0 0 0 0 0 0 0 0
0 0 0 0 0 0 0 0 0 0 0 0 0 0 0 0 0 0 0 0 0 0 0 1 3 6 8 8 5 3 3 3 3 2 1 0 0 0 0 0 0 0 0 0
0 0 0 0 0 0 0 0 0 0 0 0 0 0 0 0 0 0 0 0 0 0 0 0 1 4 6 6 5 4 3 3 3 3 1 0 0 0 0 0 0 0 0 0
0 0 0 0 0 0 0 0 0 0 0 0 0 0 0 0 0 0 0 0 0 0 0 0 1 2 4 4 5 4 4 3 3 2 1 0 0 0 0 0 0 0 0 0
0 0 0 0 0 0 0 0 0 0 0 0 0 0 0 0 0 0 0 0 0 0 0 0 0 1 3 4 5 5 4 2 1 1 1 0 0 0 0 0 0 0 0 0
0 0 0 0 0 0 0 0 0 0 0 0 0 0 0 0 0 0 0 0 0 0 0 0 0 2 4 5 5 4 2 1 0 0 0 0 0 0 0 0 0 0 0 1
0 0 0 0 0 0 0 0 0 0 0 0 0 0 0 0 0 0 0 0 0 0 0 0 0 2 4 5 4 2 0 0 0 0 0 0 0 0 0 0 0 0 0 1
0 0 0 0 0 0 0 0 0 0 0 0 0 0 0 0 0 0 0 0 0 0 0 0 0 1 3 4 3 1 0 0 0 0 0 0 0 0 0 0 0 0 0 1
0 0 0 0 0 0 0 0 0 0 0 0 0 0 0 0 0 0 0 0 0 0 0 0 0 1 2 3 2 1 0 0 0 0 0 1 1 1 0 0 0 0 0 1
0 0 0 0 0 0 0 0 0 0 0 0 0 0 0 0 0 0 0 0 0 0 0 0 0 1 1 1 1 1 1 0 0 0 1 3 3 2 1 0 0 0 0 1
0 0 0 0 0 0 0 0 0 0 0 0 0 0 0 0 0 0 0 0 0 0 0 0 0 0 1 0 0 0 0 0 0 1 2 3 3 3 2 1 0 0 0 0
0 0 0 0 0 0 0 0 0 0 0 0 0 0 0 0 0 0 0 0 0 1 1 0 0 1 1 0 0 0 0 0 1 2 3 3 3 3 3 2 1 0 0 0
0 0 0 0 0 0 0 0 0 0 0 0 0 0 0 0 0 0 0 0 1 1 1 0 1 1 1 0 0 0 0 1 2 3 3 3 3 3 3 2 1 0 0 0
Wind_Speed
4 6 5 4 4 2 2 3 2 2 3 3 2 1 2 4 5 5 4 4 4 4 4 5 5 4 4 4 3 4 4 4 3 2 2 2 2 1 2 2 3 2 3 3
6 5 3 3 4 5 5 5 3 3 3 2 1 1 1 3 4 5 4 4 4 4 5 5 5 5 4 4 4 3 3 3 3 2 1 2 2 1 2 2 2 2 3 3
6 1 3 6 6 6 5 5 3 2 3 4 3 2 3 3 3 3 4 4 4 5 6 6 6 5 5 4 4 3 3 3 3 3 2 2 2 2 2 2 2 2 3 3
5 3 4 6 5 6 4 3 4 4 4 2 3 2 2 3 3 3 4 4 5 6 6 6 6 6 5 4 4 4 3 3 3 3 3 3 2 2 2 2 2 2 3 3
4 4 5 6 4 5 1 1 4 5 5 4 4 4 1 2 2 2 4 5 5 6 7 7 6 6 5 5 4 4 3 3 3 3 3 3 2 2 2 2 3 3 3 2
4 3 4 3 2 3 4 4 4 5 5 5 3 4 1 1 1 1 2 4 5 6 7 7 6 6 5 5 4 4 4 3 3 3 3 3 3 3 3 3 2 2 2 2
7 6 4 3 5 6 7 6 4 5 5 2 2 3 1 2 1 2 2 2 4 5 7 7 7 6 5 5 5 5 4 4 4 4 4 4 4 3 3 3 2 2 2 2
7 7 6 5 6 5 7 7 5 3 2 2 4 3 2 3 1 1 0 2 4 5 6 6 6 6 6 6 6 5 5 4 4 4 3 3 4 2 2 2 2 2 1 2
6 4 4 3 3 5 6 5 4 5 3 3 3 2 2 2 1 2 2 2 3 5 6 6 6 6 6 6 6 5 5 5 5 4 4 3 4 3 3 2 2 2 2 2
4 4 4 3 5 2 4 4 5 5 4 4 3 4 2 3 1 2 2 2 3 4 5 6 6 6 6 6 5 5 5 5 5 4 3 3 4 4 3 3 3 3 2 2
5 6 5 6 7 6 6 7 6 5 5 5 3 2 2 1 1 1 2 3 3 4 5 5 5 5 5 5 5 5 5 5 4 4 4 4 4 3 4 3 3 3 3 3
4 5 5 5 2 3 5 6 7 6 5 5 5 1 3 1 1 1 1 3 3 4 4 5 5 6 5 5 5 5 5 5 4 4 4 4 4 4 4 4 4 4 3 3
4 6 5 6 7 6 6 6 7 7 6 7 7 3 4 2 1 1 1 2 3 4 5 5 5 5 5 5 5 5 5 4 4 4 4 4 5 5 5 4 4 4 4 3
5 7 7 6 3 3 6 6 7 8 8 8 9 6 4 4 2 2 1 2 3 4 5 5 5 5 5 5 5 5 4 4 4 4 4 4 4 4 5 4 4 4 3 3
6 7 6 5 5 5 7 8 9 11 10 10 8 8 6 5 4 3 2 3 4 4 4 5 5 5 5 5 5 4 4 4 4 5 4 4 4 4 4 4 4 4 4 4
4 5 6 6 6 7 9 10 11 12 11 11 10 10 6 5 4 3 3 4 4 4 4 4 5 5 6 5 5 5 5 4 5 5 4 4 4 4 4 4 4 4 4 4
4 6 7 7 5 7 10 9 11 10 9 10 11 8 5 5 5 5 5 5 5 5 4 5 5 5 5 5 5 5 5 4 4 4 4 4 4 4 4 3 3 3 4 4
7 8 6 6 7 11 2 1 4 6 6 7 7 6 6 6 6 5 4 4 5 5 5 5 4 4 4 4 4 4 4 5 4 4 4 4 4 4 4 3 3 4 4 4
9 8 7 6 8 8 5 4 5 7 6 4 5 4 4 4 5 5 3 3 4 4 4 4 4 4 4 4 4 4 4 4 4 4 4 4 5 4 4 4 4 3 3 3
6 9 8 8 9 8 3 2 3 6 6 2 3 3 2 4 6 3 2 3 4 3 3 3 3 4 4 4 4 5 5 4 4 4 4 4 4 4 4 4 4 3 3 3
7 8 11 11 10 7 1 2 5 8 2 3 3 3 4 5 3 2 1 2 3 2 3 3 4 4 3 4 4 5 4 4 3 3 3 3 4 4 4 3 3 3 3 3
7 7 9 9 11 7 4 5 6 2 1 2 3 3 4 4 2 1 1 1 2 2 3 4 4 4 4 4 4 4 3 2 2 3 3 4 3 3 3 4 3 3 3 4
6 6 4 6 4 1 2 3 2 2 2 3 3 3 4 4 3 3 2 2 2 3 4 4 5 4 4 4 4 4 3 3 3 4 4 4 4 3 3 4 4 3 3 3
4 4 6 6 6 4 4 4 3 3 4 4 3 3 4 5 4 4 3 2 2 3 3 4 5 5 5 4 4 4 3 3 4 4 4 4 4 3 3 2 3 3 3 3
5 5 6 8 6 5 6 5 4 4 4 4 4 5 5 5 5 5 4 4 3 3 3 4 5 5 5 5 4 4 3 4 4 4 4 4 3 3 3 2 2 3 3 2
6 7 7 7 5 6 6 5 5 5 5 5 5 5 5 5 5 5 4 4 4 4 4 4 4 5 5 5 4 4 4 4 4 3 3 3 3 3 3 2 2 1 0 1
Wind_Direction
187 200 196 192 210 208 182 186 167 135 143 188 203 229 181 176 194 204 201 195 192 176 161 161 164 160 159 161 165 152 149 136 131 135 136 117 88 77 74 60 54 62 80 89
184 200 198 179 179 196 204 204 188 143 147 209 197 253 186 185 207 217 216 209 199 184 167 159 168 167 173 166 166 162 152 142 140 128 111 104 98 82 72 70 76 74 88 95
205 138 181 188 185 199 212 227 210 179 162 192 237 203 162 159 190 210 225 225 206 195 188 173 173 172 173 173 173 172 165 159 153 141 128 133 130 135 135 113 88 77 86 96
207 180 185 198 206 224 219 220 222 213 227 216 246 269 136 159 169 195 214 217 211 197 194 184 178 178 178 177 178 179 163 159 153 158 162 167 165 143 119 110 108 117 107 105
190 196 202 209 215 224 216 187 211 227 244 248 228 255 135 153 203 211 214 214 211 199 195 192 187 183 179 173 178 174 162 159 159 166 158 183 158 130 127 130 129 123 113 110
207 197 233 229 196 195 162 171 178 213 236 238 230 246 216 150 278 259 210 207 205 197 189 188 181 178 172 169 171 171 171 162 163 177 181 183 161 161 158 156 144 141 128 124
201 194 187 204 186 175 205 221 213 206 208 197 141 235 276 53 323 287 251 187 186 185 180 179 177 177 172 171 172 176 172 170 174 181 185 187 181 185 183 176 161 163 146 135
210 198 187 204 228 211 210 236 254 255 239 160 178 224 90 66 42 346 191 161 163 170 173 175 176 176 175 175 174 176 175 177 180 188 185 185 180 190 186 186 185 178 150 132
218 193 158 196 226 231 206 220 266 272 255 248 192 174 159 141 122 114 114 140 163 171 173 174 174 178 179 179 177 180 180 181 184 190 189 188 186 187 186 190 189 190 169 149
245 211 171 172 187 197 258 206 213 237 247 239 209 215 197 150 148 151 153 163 171 174 173 172 173 177 180 181 180 184 191 189 185 193 193 191 197 190 192 191 180 181 168 163
237 223 182 188 211 204 191 205 220 232 254 265 242 161 76 142 167 187 183 186 180 176 177 174 171 172 171 170 176 182 189 190 189 195 190 188 189 189 187 186 179 183 176 172
223 246 217 200 192 269 243 233 228 237 227 244 267 221 98 144 157 165 177 174 173 175 174 171 168 163 165 171 176 181 183 186 188 192 191 189 185 187 190 186 186 187 179 177
197 232 221 195 189 197 217 223 232 248 246 239 242 203 132 151 158 153 165 170 167 168 168 166 165 168 173 177 179 179 177 179 179 186 192 193 189 189 192 189 184 189 188 182
241 240 248 248 267 217 217 213 218 231 241 242 243 244 218 220 227 223 207 187 174 171 166 165 169 175 179 181 182 179 175 175 174 178 187 192 189 189 194 188 186 193 191 190
233 243 247 260 263 247 248 239 227 233 248 256 255 253 250 249 245 238 213 189 173 175 175 176 180 178 179 180 181 179 176 176 177 179 186 192 186 178 186 185 193 193 190 197
236 236 237 239 227 232 246 246 239 241 246 249 253 257 261 259 237 226 205 191 185 187 193 193 191 185 184 183 182 181 183 183 182 183 187 180 180 173 181 185 189 189 193 198
220 227 242 244 224 241 246 242 234 231 234 237 248 257 253 245 232 227 215 201 202 203 201 198 198 192 189 187 186 184 187 185 185 186 183 181 182 176 179 178 178 185 192 191
236 230 241 248 231 243 248 126 224 228 240 249 257 263 255 249 242 231 231 221 215 209 205 201 195 189 192 185 182 180 179 183 186 185 182 179 182 179 177 179 186 199 195 185
236 228 232 237 244 253 245 226 224 229 238 251 250 256 262 249 228 210 218 235 231 221 208 199 191 184 179 175 176 177 176 180 185 189 190 183 183 180 181 183 189 192 191 187
210 223 232 231 242 247 233 176 219 238 233 194 234 240 231 220 229 216 234 245 233 216 195 187 179 174 170 165 173 182 183 184 189 194 195 188 184 181 187 192 189 182 187 190
188 207 223 232 242 250 235 154 197 229 243 139 210 222 210 225 279 333 284 238 227 204 182 173 168 167 167 163 170 181 183 189 188 184 181 182 180 181 182 183 186 186 184 184
215 210 218 227 236 237 135 177 215 280 21 204 224 229 232 248 283 287 262 228 212 193 179 170 169 168 165 164 172 179 186 188 177 173 175 179 178 178 178 177 186 190 185 189
230 240 239 234 245 9 190 227 277 295 253 246 244 239 233 241 255 258 253 237 214 196 180 177 175 173 172 175 184 186 175 169 177 177 180 181 179 179 187 187 187 191 195 202
231 256 244 246 243 241 238 242 257 258 261 267 268 261 251 250 251 247 245 236 222 211 186 185 185 184 186 185 192 191 170 175 181 183 184 184 180 181 185 195 200 200 204 209
248 233 239 247 248 252 247 246 251 255 258 254 253 251 253 256 253 248 244 239 232 221 201 195 198 196 195 188 187 183 174 183 189 188 186 188 183 183 189 190 210 220 217 228
230 234 239 247 247 253 258 256 259 253 253 248 246 249 252 248 247 248 243 237 232 222 209 202 200 201 198 189 182 177 178 190 195 195 191 190 189 188 193 186 166 61 245 120